STARLINK-5064 (55428 NORAD) Tracking and Keplerian Element Data

This shows tracking and keplerian element data for the satellite.

Feedback or suggestion? Click here.




ElementValue
Catalog55428
NameSTARLINK-5064
Epoch Orbit1517
Epoch Day127.25001157
Epoch Year2023
RAAN182.2233
Inclination69.9989
Eccentricity0.0003421
Argument of Perigee269.5954
Mean Anonmoly77.0198
Mean Motion15.39928498
Decay Rate-0.00964016
L11 55428U 23014AP 23127.25001157 -.00964016 00000+0 -26404-1 0 9994
L22 55428 69.9989 182.2233 0003421 269.5954 77.0198 15.39928498 15171



Live tracking and technical data element details for STARLINK-5064 (NORAD 55428). STARLINK-5064 can be tracked NOW for your location showing map with azimuth and elevation plus other details from your city location.







IsCatalogInMostPopularTable: catalog: 55428, numindb: 1
Update: records affected: 1



GetName: 55428 STARLINK-5064

Hit Count: updated at: Mon, 05 Jun 2023 19:42:03 GMT